Wetbulb
60.35 59.97 59.28 58.74 58.98 58.13 57.54 56.85 55.82 55.19 55.17 54.10 53.10 52.42 51.55 50.94 50.79 50.90 50.76 50.25 50.27 50.77 50.96 50.99 51.88 52.26 48.33 41.06 41.91 48.60 59.80 59.57 53.01 50.24 45.52 44.08 41.71 40.67 37.62 39.14 39.58 36.72 38.68 39.97 41.51 41.84 42.06
59.99 59.61 59.14 58.79 58.71 58.14 57.66 56.64 55.73 55.18 54.55 53.82 52.97 51.93 50.87 50.67 50.77 50.72 50.14 49.86 50.03 50.20 50.50 51.03 51.60 52.18 45.84 35.10 44.14 49.36 50.33 47.51 46.46 47.15 45.71 45.95 44.77 44.45 38.64 37.23 35.47 39.98 39.52 39.16 40.99 40.84 39.70
60.37 59.59 58.94 58.42 58.35 57.75 57.15 56.08 55.59 55.30 54.47 53.63 52.70 51.58 50.59 50.61 50.31 50.11 49.90 49.83 49.81 49.69 49.94 50.86 51.50 50.34 44.86 39.09 45.59 45.33 46.97 44.52 44.06 44.69 41.05 42.01 42.42 38.22 37.85 35.77 39.08 38.31 35.38 38.10 40.38 39.37 39.08
60.47 60.03 59.41 58.38 57.84 57.04 56.27 55.54 55.61 55.24 54.35 53.16 52.48 51.41 51.03 49.90 49.77 49.49 49.37 49.20 49.07 49.22 50.09 50.75 51.73 49.09 39.38 48.62 47.27 48.34 46.81 46.00 46.15 44.31 43.72 44.56 43.06 39.84 36.90 37.90 36.91 34.47 33.61 30.79 37.53 38.61 40.47
60.36 60.09 59.73 58.73 57.63 56.94 56.01 55.26 55.28 54.82 53.92 52.80 52.26 51.61 50.62 49.50 49.26 49.21 48.84 48.74 49.09 49.92 50.41 50.67 46.59 43.50 38.54 52.37 48.83 50.53 49.29 45.11 44.56 44.61 43.65 46.35 42.86 38.15 36.58 31.38 28.35 29.68 26.20 28.18 31.70 37.87 37.34
60.87 60.31 59.70 58.95 57.77 56.87 55.91 55.26 54.43 54.14 52.99 52.26 52.12 51.34 49.60 48.93 48.60 49.05 48.87 48.54 48.66 48.59 49.52 49.46 48.12 40.29 42.68 42.40 44.44 43.58 44.81 45.05 42.21 42.22 41.19 38.64 36.80 33.20 30.72 29.80 21.67 23.50 25.23 25.42 27.20 33.23 34.23
60.82 60.44 59.84 58.98 57.94 56.98 56.31 55.57 54.36 53.35 52.87 52.60 51.64 50.48 48.89 48.09 47.50 48.22 45.22 39.79 35.23 35.42 41.69 39.22 40.18 39.86 43.12 44.54 44.45 42.16 44.25 42.24 41.22 38.42 32.43 34.96 29.26 26.56 30.83 32.91 33.78 32.01 29.84 28.93 32.72 36.05 33.23
59.19 59.51 59.48 58.99 57.96 57.02 56.32 55.40 53.80 52.86 51.98 51.07 51.17 49.20 47.98 47.51 46.90 47.39 43.02 36.67 37.19 37.67 30.25 38.59 39.80 42.30 45.22 45.15 39.53 42.95 42.95 37.39 37.61 32.52 33.56 30.68 26.69 32.32 33.95 34.03 33.11 32.22 29.51 28.54 32.18 35.15 33.82
57.72 57.95 58.99 59.21 58.15 56.91 56.09 55.18 53.54 52.29 50.52 50.00 50.53 48.47 47.04 46.59 46.92 43.23 38.61 38.98 43.72 40.86 28.91 35.07 39.68 39.14 40.43 41.49 37.14 38.54 41.40 39.30 36.02 32.42 32.69 29.23 32.75 37.21 34.05 32.21 30.62 30.32 28.76 28.66 29.18 33.40 33.82
57.32 57.15 57.67 58.21 57.88 56.33 55.40 54.57 53.01 50.73 50.13 51.02 48.60 47.34 46.13 46.13 41.16 39.95 39.56 42.93 42.11 42.85 27.90 33.58 37.58 41.40 43.47 42.76 38.62 43.04 41.51 36.90 33.70 30.60 31.13 29.31 34.02 32.38 29.93 29.03 30.42 25.74 31.79 31.61 30.38 28.35 23.29
56.59 56.52 56.45 57.15 56.59 55.04 54.15 53.28 51.35 50.68 50.70 49.03 47.34 46.18 46.30 45.78 38.36 38.19 41.27 42.28 42.01 40.63 18.28 37.47 39.07 43.71 40.88 37.77 37.48 38.08 40.56 36.80 31.77 31.80 30.25 27.85 29.25 28.63 27.32 29.06 31.57 28.49 32.48 31.70 31.54 28.27 27.62
56.32 56.09 56.41 56.29 55.08 53.97 52.66 51.58 51.10 50.46 49.23 47.63 46.44 46.21 45.85 43.38 39.79 40.78 42.18 42.31 40.90 27.67 18.80 31.89 35.10 34.25 34.97 36.21 35.56 36.10 35.90 38.02 36.58 31.89 31.17 29.37 32.86 30.37 29.52 33.27 33.65 35.49 32.07 31.41 30.52 28.06 20.70
55.62 55.68 55.82 54.80 53.80 52.26 51.58 51.26 50.60 49.12 47.67 46.47 46.10 46.16 43.84 43.15 37.43 40.76 41.40 38.81 28.18 22.87 33.87 28.02 29.32 33.08 31.98 30.21 32.14 32.28 31.03 29.23 25.26 22.14 22.79 28.25 29.20 32.53 34.94 29.71 32.18 30.60 26.52 18.35 14.93 17.78 18.43
55.40 55.24 54.62 53.25 52.03 51.45 51.13 50.44 49.07 47.42 46.78 45.91 46.03 44.81 43.14 43.28 42.20 42.68 38.96 30.74 20.93 28.98 27.67 32.11 30.86 31.42 27.26 29.85 29.58 29.58 27.52 23.99 29.57 28.00 23.79 21.07 19.18 28.36 33.10 29.70 26.62 26.86 26.24 20.09 14.55 16.24 20.20
55.38 54.59 53.44 52.12 51.32 51.02 50.24 48.91 47.82 46.71 45.44 45.36 44.84 38.92 39.27 41.84 42.20 42.03 34.50 20.50 22.96 26.73 30.30 28.87 29.54 26.44 26.00 28.62 26.77 26.55 25.12 24.15 27.61 29.33 21.65 22.39 22.57 31.31 32.07 32.94 31.32 28.91 21.97 29.53 24.53 25.99 21.41
54.77 53.57 52.10 51.18 50.60 49.89 48.64 47.95 46.54 45.70 45.35 44.99 38.39 38.58 39.43 43.07 42.87 38.62 29.28 27.47 27.42 32.30 32.18 31.31 24.75 27.48 22.42 24.32 24.24 23.72 23.74 28.53 27.72 30.16 32.37 27.86 19.91 28.98 31.07 32.87 32.51 31.55 33.35 22.33 25.49 18.35 15.67
53.71 52.31 51.24 50.39 49.08 48.25 47.83 46.79 45.90 45.20 44.47 44.74 38.65 34.76 39.45 41.98 42.18 34.45 24.91 28.06 30.47 34.14 34.14 30.02 26.94 25.68 25.22 23.92 25.19 23.68 25.25 28.59 28.85 30.12 31.50 28.38 25.61 25.01 29.13 26.83 25.52 30.33 30.09 30.79 29.62 27.39 19.44
51.34 49.90 48.80 48.35 47.84 47.39 46.18 45.49 45.07 44.35 44.64 41.57 37.24 30.20 40.19 41.77 31.69 31.78 27.71 32.27 35.18 32.81 34.79 32.47 31.26 29.63 27.02 26.34 24.75 24.38 24.40 27.38 31.79 31.17 25.83 29.81 24.58 21.23 23.58 30.78 33.16 31.52 29.29 33.04 26.47 24.35 28.16
48.07 47.81 47.63 47.43 46.72 45.36 44.92 44.56 44.73 44.59 44.40 37.74 33.05 32.85 39.16 39.97 25.11 27.22 31.89 31.87 33.35 31.77 31.24 30.39 29.46 30.05 29.50 25.88 22.67 26.66 27.12 33.58 33.59 30.29 28.01 30.36 24.57 16.81 21.23 30.26 33.30 31.54 33.25 33.20 35.28 33.46 26.80
46.83 46.81 46.97 46.14 45.71 45.07 44.92 44.85 44.86 44.41 44.65 39.44 33.47 26.30 31.82 34.55 31.29 29.34 27.80 28.24 28.84 33.39 31.65 31.63 29.77 30.45 28.11 26.12 28.11 24.14 26.73 30.08 32.95 31.45 36.63 33.27 25.25 21.78 16.90 22.99 29.12 26.53 29.37 31.41 32.24 28.44 25.63
46.68 46.58 46.79 46.10 45.45 45.69 44.88 44.60 44.21 44.80 44.55 39.52 33.79 28.54 32.38 26.22 27.74 28.63 28.93 28.79 27.33 26.45 31.72 30.81 28.71 29.10 27.08 23.55 24.70 24.05 26.41 26.34 29.77 33.08 32.96 33.13 25.71 27.52 27.34 28.14 28.79 29.28 30.14 31.14 29.91 31.93 24.84
46.61 46.22 45.54 45.30 45.47 44.61 44.00 43.74 43.94 44.58 44.37 37.08 32.17 29.34 32.37 29.15 29.81 28.04 28.73 27.51 27.07 28.51 28.52 27.52 26.72 28.67 27.74 25.13 26.01 22.97 26.56 26.67 25.16 30.40 32.94 33.60 24.08 28.12 25.38 29.73 30.60 25.87 26.69 26.81 28.57 29.31 28.50
45.04 44.76 45.06 45.42 44.86 44.13 43.52 43.33 43.69 44.10 43.36 35.30 35.40 35.18 33.03 30.02 27.13 26.82 26.17 28.82 28.52 28.21 30.99 31.69 29.31 27.56 27.84 30.24 33.14 33.07 33.75 33.08 32.72 30.17 29.33 29.17 26.57 26.74 25.12 29.59 27.03 17.53 24.52 24.63 25.03 25.58 26.24
46.03 45.95 45.33 44.78 44.16 43.86 43.37 44.22 45.19 44.93 42.74 36.92 35.95 34.37 28.41 24.88 27.23 28.50 32.10 31.57 29.56 29.13 22.71 31.30 31.19 30.27 33.82 36.66 35.83 34.97 33.58 33.27 33.41 33.26 33.95 28.71 28.58 28.62 26.83 28.43 15.84 25.68 30.32 28.10 24.42 24.78 25.50
45.50 45.38 45.31 44.50 43.94 43.81 44.34 44.61 45.24 45.73 44.47 38.50 36.92 34.14 30.94 25.86 29.05 30.75 31.98 31.01 30.34 29.75 26.70 25.24 32.16 34.50 34.99 32.87 30.87 26.87 27.06 29.82 31.42 33.76 35.15 34.35 30.12 28.78 25.93 22.13 24.78 27.88 25.37 24.66 25.54 21.74 25.45
45.51 45.54 45.52 44.08 43.83 44.16 44.30 44.49 44.99 45.76 44.97 39.28 37.84 37.23 33.36 28.78 27.44 33.18 28.72 29.78 25.74 23.66 26.40 28.93 33.60 34.95 33.40 31.46 29.52 23.38 24.00 26.69 26.56 30.47 34.01 33.40 33.38 30.50 26.77 21.82 17.79 22.58 24.78 29.12 29.67 15.46 25.20
44.88 45.25 44.61 43.98 44.35 44.25 44.04 44.37 44.95 45.59 44.61 39.28 37.24 37.16 33.20 28.05 30.92 31.77 27.29 27.18 29.63 26.93 24.97 27.47 29.35 31.09 31.40 25.39 26.28 24.18 25.46 30.25 22.79 23.29 26.12 26.83 27.85 23.47 24.51 21.93 22.26 23.13 25.58 31.65 17.52 18.42 24.83
45.07 44.92 44.55 44.73 44.73 44.33 44.18 44.71 44.90 45.35 44.73 39.52 36.65 38.75 33.78 27.42 30.17 34.70 34.88 28.49 27.83 27.39 22.31 27.38 25.91 28.02 27.10 23.80 25.17 24.28 24.19 27.37 26.30 27.68 26.40 23.40 22.10 20.58 22.79 20.32 17.51 24.98 25.93 22.13 25.09 26.90 25.01
44.76 44.78 44.76 44.84 44.65 44.64 44.91 44.57 44.71 45.12 44.85 41.61 35.31 38.92 37.11 31.07 30.27 33.94 34.67 34.45 33.03 32.61 29.19 31.10 27.63 28.27 26.12 25.58 27.33 27.97 24.39 25.46 23.64 18.07 28.84 21.64 24.50 21.23 21.67 19.02 24.61 25.98 25.21 28.03 28.40 25.40 24.31
MSLP
1014.95 1015.29 1015.61 1015.86 1016.13 1016.47 1016.69 1017.05 1017.36 1017.39 1017.69 1018.10 1018.15 1018.00 1018.09 1018.20 1017.97 1017.89 1017.75 1017.63 1017.38 1017.65 1017.75 1017.19 1016.85 1016.71 1016.43 1016.04 1013.52 1011.43 1011.47 1011.49 1011.57 1011.58 1011.60 1011.75 1012.02 1012.04 1012.15 1011.99 1011.76 1011.60 1011.12 1010.51 1010.16 1009.79 1009.43
1013.92 1014.16 1014.54 1015.04 1015.21 1015.66 1015.77 1016.39 1016.89 1017.03 1017.22 1017.66 1018.05 1018.10 1018.02 1018.19 1018.09 1017.72 1017.53 1017.32 1017.17 1017.17 1017.44 1017.14 1016.84 1016.81 1016.85 1015.33 1011.66 1011.34 1011.64 1011.68 1011.49 1011.53 1011.57 1011.67 1011.92 1012.03 1012.16 1012.04 1012.03 1011.30 1011.00 1010.55 1010.03 1009.70 1009.36
1012.71 1013.08 1013.43 1013.88 1014.31 1014.68 1015.19 1015.75 1016.06 1016.48 1016.89 1017.30 1017.56 1017.84 1018.08 1018.32 1017.95 1017.70 1017.52 1017.13 1016.87 1017.08 1016.86 1017.05 1016.79 1016.80 1016.41 1013.15 1011.52 1011.54 1011.70 1011.44 1011.20 1011.15 1011.35 1011.33 1011.54 1012.00 1012.18 1012.15 1011.67 1011.46 1010.94 1010.29 1009.70 1009.46 1009.23
1011.57 1011.72 1012.22 1012.83 1013.09 1013.64 1014.24 1014.85 1015.62 1016.12 1016.39 1016.77 1017.21 1017.52 1017.43 1017.74 1017.83 1017.77 1017.38 1017.06 1016.40 1016.37 1016.44 1016.56 1016.58 1016.57 1015.10 1011.70 1011.53 1011.54 1011.16 1010.91 1010.69 1010.74 1010.97 1010.92 1011.36 1011.86 1012.32 1012.16 1012.15 1012.23 1011.70 1010.96 1010.10 1009.84 1009.54
1010.65 1010.63 1011.04 1011.51 1012.12 1012.54 1013.16 1014.00 1014.56 1015.47 1015.80 1016.41 1016.91 1017.17 1017.44 1017.45 1017.42 1017.51 1017.11 1016.63 1016.08 1015.68 1015.51 1015.95 1016.51 1016.49 1013.81 1011.39 1011.14 1010.06 1010.54 1010.64 1010.44 1010.41 1010.61 1010.61 1011.00 1011.74 1012.24 1012.84 1013.37 1013.25 1012.57 1011.70 1011.34 1010.45 1010.28
1009.64 1009.69 1010.30 1010.74 1011.07 1011.78 1012.44 1012.98 1013.94 1014.82 1015.38 1015.78 1016.50 1016.99 1017.07 1017.01 1017.12 1017.15 1016.78 1016.02 1015.61 1015.67 1015.54 1015.91 1015.89 1016.22 1012.87 1011.22 1010.38 1009.91 1010.08 1010.22 1010.43 1010.53 1010.94 1011.23 1011.83 1012.35 1012.97 1013.62 1013.94 1013.84 1013.55 1012.67 1012.05 1011.65 1010.86
1008.36 1008.49 1009.15 1009.48 1009.89 1010.80 1011.57 1012.13 1012.89 1014.23 1014.89 1015.39 1015.97 1016.38 1016.95 1016.86 1016.47 1016.62 1016.78 1016.25 1016.11 1015.89 1015.59 1014.30 1013.95 1013.31 1012.02 1011.16 1010.19 1010.20 1010.03 1010.39 1010.62 1011.15 1011.76 1012.08 1012.75 1013.00 1013.14 1013.25 1013.39 1013.56 1013.48 1012.67 1011.52 1011.16 1010.93
1007.44 1007.72 1008.11 1008.78 1009.16 1009.85 1010.51 1011.71 1012.10 1013.43 1014.34 1014.90 1015.49 1015.89 1016.50 1016.85 1016.09 1016.34 1016.65 1016.50 1015.60 1015.69 1014.97 1013.57 1013.45 1012.91 1011.90 1011.89 1011.44 1010.15 1009.99 1010.72 1010.98 1011.53 1012.08 1012.76 1012.96 1012.79 1012.73 1013.13 1013.36 1013.39 1013.28 1012.54 1010.92 1010.96 1010.76
1006.44 1006.84 1007.10 1007.44 1007.94 1008.90 1009.86 1010.71 1011.51 1012.40 1013.59 1014.48 1015.36 1015.45 1015.84 1016.33 1016.35 1015.97 1015.86 1015.78 1015.31 1015.30 1015.33 1012.89 1012.42 1011.77 1010.89 1011.34 1011.27 1010.45 1010.16 1010.49 1010.95 1011.83 1012.33 1012.65 1012.55 1012.50 1012.83 1012.89 1013.10 1012.87 1012.98 1012.45 1012.01 1010.43 1010.22
1005.38 1005.66 1006.26 1006.66 1007.22 1007.82 1008.99 1009.95 1011.28 1012.43 1013.40 1014.24 1015.17 1015.24 1015.68 1016.18 1016.20 1016.00 1015.87 1015.33 1015.27 1015.29 1015.19 1012.51 1011.07 1010.08 1010.07 1010.48 1010.98 1010.64 1010.43 1010.71 1011.18 1011.71 1012.06 1012.23 1012.26 1012.72 1012.87 1012.91 1012.87 1011.97 1012.55 1012.27 1011.98 1011.93 1010.70
1004.16 1004.69 1005.35 1005.83 1006.40 1007.40 1008.60 1009.75 1011.26 1012.50 1013.18 1013.97 1014.78 1015.45 1015.28 1015.83 1015.78 1015.69 1015.60 1015.37 1015.24 1015.54 1014.47 1011.59 1010.64 1009.98 1010.17 1010.74 1011.15 1011.19 1011.30 1011.12 1011.80 1012.23 1012.64 1012.62 1012.19 1012.15 1012.56 1012.37 1012.41 1011.52 1011.93 1012.11 1012.12 1011.91 1011.28
1002.84 1003.36 1004.26 1004.83 1005.59 1006.96 1008.21 1009.68 1010.87 1011.90 1013.16 1014.06 1015.21 1015.14 1015.01 1015.93 1015.88 1015.21 1015.15 1015.12 1015.63 1015.81 1013.20 1011.79 1011.51 1011.28 1011.46 1011.69 1011.86 1012.20 1012.24 1011.96 1012.15 1012.34 1012.40 1012.68 1012.41 1012.27 1011.99 1011.97 1012.18 1012.07 1012.14 1011.95 1011.90 1011.86 1010.79
1001.64 1002.41 1003.06 1004.04 1005.27 1006.60 1008.02 1009.19 1010.31 1011.47 1012.82 1013.84 1014.53 1014.95 1015.19 1015.14 1015.29 1015.16 1015.14 1015.69 1015.88 1014.69 1012.52 1012.74 1012.57 1012.47 1012.80 1013.12 1013.32 1013.56 1013.78 1013.85 1013.95 1013.96 1013.50 1013.23 1012.74 1012.25 1012.04 1012.05 1012.00 1012.20 1012.71 1012.41 1012.24 1011.40 1009.61
1000.16 1001.31 1002.26 1003.40 1004.80 1006.32 1007.62 1008.98 1010.10 1011.61 1013.13 1013.61 1014.19 1014.61 1014.78 1014.93 1015.09 1014.83 1015.28 1015.84 1015.36 1013.65 1013.32 1013.32 1013.49 1013.13 1013.96 1014.27 1014.32 1014.44 1014.98 1014.99 1014.70 1014.98 1014.95 1014.13 1013.10 1012.73 1012.85 1012.89 1012.94 1012.62 1013.15 1013.00 1011.73 1010.74 1009.65
998.79 1000.19 1001.45 1002.88 1004.23 1005.84 1007.29 1008.79 1009.87 1011.46 1012.75 1013.58 1014.18 1014.68 1015.01 1014.73 1014.86 1014.95 1015.25 1015.30 1014.26 1013.62 1013.55 1013.78 1013.95 1014.17 1014.89 1015.21 1015.26 1015.31 1015.67 1015.67 1015.35 1015.40 1016.09 1015.14 1013.96 1013.28 1012.99 1012.44 1012.84 1012.15 1012.14 1011.58 1011.80 1011.09 1010.46
997.75 999.37 1000.84 1002.24 1003.88 1005.47 1007.08 1008.68 1009.93 1010.92 1012.23 1013.41 1014.18 1014.67 1014.62 1014.41 1014.67 1015.05 1015.08 1014.46 1014.03 1013.38 1013.48 1013.80 1014.21 1014.82 1015.23 1015.71 1015.89 1015.92 1016.03 1015.76 1015.55 1015.49 1015.63 1015.53 1014.30 1013.25 1012.37 1012.13 1011.76 1011.68 1011.24 1011.64 1011.51 1010.77 1009.99
997.16 998.94 1000.65 1002.06 1003.75 1005.50 1007.24 1008.51 1009.73 1010.71 1012.13 1013.14 1014.08 1014.24 1014.13 1014.34 1014.64 1014.86 1014.86 1014.31 1013.72 1013.58 1013.58 1013.92 1014.53 1015.10 1015.72 1015.96 1016.24 1016.39 1016.16 1015.86 1015.42 1015.42 1015.56 1015.48 1015.20 1013.53 1012.95 1011.95 1011.20 1011.02 1011.20 1011.00 1010.65 1010.29 1010.00
997.33 999.49 1001.08 1002.52 1004.13 1005.58 1007.29 1008.56 1009.58 1010.90 1011.87 1013.12 1013.37 1014.25 1014.25 1014.31 1014.92 1014.84 1014.50 1013.93 1013.66 1013.62 1013.68 1014.31 1014.80 1015.41 1015.90 1016.38 1016.70 1016.64 1016.21 1015.65 1015.11 1015.31 1015.59 1015.52 1015.54 1014.34 1012.74 1011.22 1010.64 1010.68 1010.76 1010.78 1010.30 1010.12 1009.90
998.73 1000.46 1001.86 1003.37 1004.65 1006.21 1007.68 1009.09 1010.22 1011.03 1011.58 1012.27 1013.35 1014.23 1014.44 1014.55 1014.68 1014.73 1014.26 1013.93 1013.99 1014.19 1014.65 1014.88 1015.37 1015.84 1016.25 1016.70 1016.96 1016.37 1015.89 1015.24 1015.17 1015.63 1015.44 1015.59 1015.63 1014.94 1012.37 1011.31 1010.63 1011.22 1011.11 1010.96 1010.24 1010.09 1010.30
999.97 1001.30 1002.34 1003.87 1005.49 1006.99 1008.14 1009.22 1010.07 1010.89 1011.25 1011.95 1012.73 1014.30 1014.92 1014.73 1014.50 1014.26 1014.45 1014.65 1014.92 1014.84 1015.24 1015.52 1015.78 1016.07 1016.57 1016.84 1016.76 1016.42 1016.06 1015.61 1015.36 1015.37 1015.29 1015.60 1015.46 1015.10 1013.81 1012.10 1012.08 1011.97 1011.30 1010.56 1010.28 1010.10 1011.35
1001.12 1002.29 1003.50 1005.00 1006.35 1007.49 1008.46 1009.38 1010.11 1010.71 1011.20 1011.85 1012.45 1013.42 1013.40 1014.42 1014.75 1014.61 1014.74 1015.12 1015.23 1015.37 1015.53 1015.78 1016.21 1016.39 1016.75 1016.87 1016.64 1016.41 1015.92 1015.88 1015.40 1015.02 1015.01 1015.35 1014.75 1014.17 1013.16 1012.69 1012.66 1012.73 1012.06 1010.75 1010.07 1010.59 1011.88
1002.73 1003.77 1004.82 1005.88 1006.92 1007.95 1008.83 1009.67 1010.16 1010.70 1011.19 1011.69 1012.38 1012.73 1013.33 1013.98 1014.40 1014.75 1015.03 1015.45 1015.40 1015.50 1015.92 1016.26 1016.26 1016.23 1016.41 1016.58 1016.23 1016.01 1015.86 1015.93 1015.61 1015.15 1015.17 1015.10 1014.20 1013.38 1012.06 1012.10 1013.14 1013.26 1013.11 1012.73 1012.78 1013.23 1013.91
1003.84 1004.76 1005.61 1006.56 1007.47 1008.46 1009.31 1009.84 1010.31 1010.61 1011.01 1011.51 1012.06 1012.20 1012.68 1014.41 1014.77 1014.79 1015.11 1015.20 1015.50 1015.89 1016.14 1015.77 1015.84 1015.91 1015.78 1015.38 1015.19 1014.87 1014.90 1015.21 1015.08 1015.07 1015.06 1014.46 1013.71 1012.75 1011.30 1011.55 1012.13 1013.76 1015.25 1015.19 1015.60 1015.97 1016.09
1004.64 1005.28 1006.17 1007.26 1008.11 1008.87 1009.54 1009.98 1010.31 1010.48 1010.56 1011.08 1012.02 1012.46 1013.28 1014.62 1014.52 1014.53 1014.71 1015.05 1015.50 1015.93 1015.99 1015.66 1015.66 1015.77 1015.03 1014.77 1014.41 1013.92 1013.87 1013.96 1014.10 1013.68 1013.98 1013.31 1013.18 1012.39 1011.86 1012.25 1013.70 1015.86 1016.49 1016.52 1016.89 1018.04 1018.36
1005.29 1005.95 1006.88 1007.68 1008.47 1009.12 1009.72 1010.14 1010.36 1010.41 1010.43 1011.17 1012.05 1012.37 1013.09 1014.57 1014.61 1014.59 1014.80 1015.32 1015.56 1015.83 1016.01 1015.95 1015.47 1015.13 1014.98 1014.85 1014.28 1013.55 1013.19 1013.35 1012.99 1012.83 1012.91 1012.41 1012.63 1011.65 1011.57 1012.98 1015.11 1015.78 1016.97 1017.48 1017.55 1018.99 1019.56
1006.11 1006.77 1007.54 1008.30 1008.95 1009.53 1009.88 1010.23 1010.54 1010.70 1010.91 1011.32 1012.36 1012.25 1012.95 1014.35 1015.36 1014.85 1015.15 1015.33 1015.85 1016.23 1016.32 1015.94 1015.32 1015.04 1015.00 1015.04 1014.75 1014.39 1013.68 1013.50 1012.84 1012.56 1012.61 1012.41 1011.98 1011.98 1012.36 1013.62 1015.88 1017.57 1017.92 1017.91 1018.03 1019.45 1020.32
1006.91 1007.47 1008.19 1008.98 1009.43 1009.89 1010.40 1010.65 1010.92 1011.08 1011.05 1011.48 1012.78 1012.74 1013.25 1014.72 1015.26 1014.98 1015.08 1015.44 1015.81 1016.25 1016.53 1016.49 1016.09 1015.58 1015.39 1015.51 1015.20 1015.07 1014.25 1013.76 1013.70 1013.69 1013.31 1013.12 1012.97 1013.33 1013.86 1015.23 1017.61 1018.95 1018.44 1017.91 1018.91 1021.56 1021.26
1007.58 1008.17 1008.83 1009.53 1010.11 1010.48 1010.85 1011.17 1011.47 1011.46 1011.58 1011.79 1013.41 1013.13 1013.51 1014.93 1015.46 1015.05 1014.97 1015.34 1015.73 1016.12 1016.60 1016.61 1016.58 1016.27 1016.27 1016.27 1016.11 1015.78 1015.22 1014.77 1014.69 1015.02 1014.82 1014.99 1015.08 1015.57 1015.77 1016.93 1019.29 1019.90 1019.29 1019.61 1021.21 1021.93 1022.57
1008.18 1008.88 1009.65 1010.20 1010.63 1011.05 1011.39 1011.70 1011.88 1012.03 1012.02 1012.25 1013.57 1013.68 1013.74 1014.43 1015.67 1015.53 1015.22 1014.99 1015.09 1015.38 1015.99 1016.50 1016.71 1016.87 1016.82 1016.69 1016.51 1016.22 1015.93 1015.72 1015.62 1015.89 1015.91 1016.48 1017.19 1017.50 1018.56 1019.88 1021.09 1021.64 1021.77 1021.95 1022.18 1022.90 1023.60
Wind_Speed
25 25 24 24 22 21 20 18 17 15 12 12 10 10 11 10 10 12 12 13 13 16 16 15 14 12 5 2 11 4 3 5 5 5 3 1 1 2 3 3 5 5 7 9 12 12 13
26 27 26 25 24 23 23 21 18 15 14 12 11 11 10 10 11 12 13 13 13 12 15 13 11 7 1 5 4 3 4 2 4 3 4 4 3 1 4 3 1 5 8 9 7 8 5
29 28 27 27 26 25 23 21 19 17 15 13 12 11 10 11 11 13 15 15 14 15 13 11 9 2 4 17 1 5 3 5 3 4 3 5 4 2 1 7 2 5 10 14 11 5 6
29 29 29 29 28 26 25 22 19 18 16 15 14 12 8 8 11 14 15 18 16 15 14 11 6 2 10 5 4 7 2 5 7 7 5 6 6 3 3 3 9 7 5 6 4 8 5
31 31 30 30 28 27 27 24 22 20 18 14 13 11 7 7 10 13 16 20 21 16 10 6 3 2 12 7 4 6 8 5 4 3 1 3 5 5 2 3 5 4 8 10 7 7 4
26 29 29 28 26 27 28 27 24 21 18 15 13 11 8 7 9 12 15 19 11 3 5 6 2 1 6 1 2 2 4 1 3 2 4 3 4 3 3 4 5 4 6 7 9 6 15
24 25 30 29 29 30 30 29 25 22 19 15 13 10 8 7 7 8 8 5 4 2 4 10 6 4 5 5 3 2 5 5 2 4 3 2 2 5 8 9 7 6 9 17 17 13 14
24 24 24 25 30 31 31 28 26 23 21 16 15 11 8 9 6 8 2 1 3 4 7 8 11 13 11 3 6 12 4 5 5 6 2 2 5 10 6 5 7 9 12 14 17 10 10
24 23 25 30 31 30 31 29 27 26 22 20 16 12 8 5 9 2 4 2 2 3 1 7 5 5 5 10 7 5 2 4 4 2 4 6 5 2 6 5 5 7 6 7 12 17 13
23 21 23 25 28 32 32 29 27 24 21 17 14 11 5 3 1 1 1 1 2 4 3 5 4 5 6 3 1 2 2 3 1 5 3 5 3 2 5 6 4 17 5 10 13 9 16
24 22 22 23 26 29 28 27 25 23 21 18 13 9 7 3 3 4 2 3 2 4 3 4 5 3 5 5 2 3 5 4 3 5 2 5 5 6 7 8 8 18 8 8 8 14 17
26 23 22 23 28 27 27 26 25 24 21 17 13 9 4 2 2 2 1 2 4 4 7 3 5 5 2 5 4 8 5 6 3 2 2 3 3 2 5 4 5 9 8 14 10 9 15
26 23 24 28 28 30 29 28 26 25 21 17 12 8 5 4 3 3 2 4 3 4 4 3 3 3 4 5 4 5 5 6 3 8 4 6 3 4 2 5 5 2 3 4 4 7 15
27 24 28 31 34 32 30 28 27 24 20 18 12 7 2 2 2 3 3 4 4 3 4 3 2 3 4 5 3 6 3 5 3 2 4 4 6 1 5 2 6 11 6 5 7 5 6
27 28 34 36 35 33 31 29 27 24 18 13 11 2 1 3 4 2 4 4 3 2 3 2 2 3 2 2 1 4 2 2 2 3 2 5 5 13 13 13 4 3 6 9 9 13 8
30 34 36 37 35 34 32 29 27 25 20 15 3 3 2 4 4 2 5 3 3 3 4 2 2 2 2 2 1 3 2 3 3 4 3 4 14 9 12 3 7 12 6 1 4 4 4
34 36 37 37 37 34 30 29 27 24 19 16 3 4 2 3 2 4 4 4 4 4 3 2 2 1 2 2 2 1 4 5 3 3 3 2 4 7 6 7 8 2 5 8 5 3 2
34 37 37 37 35 32 31 27 24 22 19 8 4 4 1 2 3 2 4 4 4 4 3 3 2 2 2 2 3 4 7 6 4 1 4 3 2 7 12 18 16 11 8 6 3 4 4
38 37 36 34 33 30 27 25 22 22 19 5 4 4 2 1 4 1 2 4 5 3 2 2 2 3 2 2 2 5 5 4 4 3 4 3 2 5 11 5 8 4 2 11 3 2 3
34 34 33 33 32 29 27 24 22 19 14 3 4 5 1 1 1 5 5 3 4 2 3 2 0 2 0 3 5 5 3 5 2 4 15 4 5 9 10 12 9 9 15 19 11 4 6
30 30 30 30 28 26 24 21 18 14 9 2 2 3 5 4 2 4 5 3 4 3 3 2 2 4 3 3 3 6 6 4 4 6 2 5 7 12 18 19 18 13 11 15 6 5 5
28 28 27 27 25 23 21 18 15 12 9 3 4 5 3 3 4 7 3 5 5 2 5 3 3 4 3 5 6 5 6 3 6 3 4 2 6 6 18 15 2 14 19 17 11 12 11
28 29 26 23 23 22 19 16 12 9 5 3 0 3 5 5 4 5 4 6 7 6 3 5 5 1 4 11 13 17 14 10 11 5 4 5 3 4 5 14 12 12 11 14 11 16 9
25 25 25 24 22 19 17 14 10 7 4 3 2 3 5 2 4 4 6 3 6 6 7 3 4 3 6 5 7 8 12 15 14 16 11 7 4 4 5 8 5 6 6 12 17 14 12
23 23 24 23 20 18 16 13 11 11 8 4 2 3 4 4 2 3 8 6 5 3 1 3 4 6 5 4 4 6 1 3 7 8 3 11 4 3 3 7 8 2 8 6 6 7 11
22 23 22 21 19 18 15 13 11 10 8 5 3 1 4 7 1 1 4 3 3 1 2 3 3 4 3 1 1 3 3 3 2 2 7 6 3 2 3 4 3 3 14 10 5 4 9
19 21 21 20 17 16 14 13 11 12 12 5 3 3 5 5 2 2 3 4 4 3 1 3 5 6 4 3 2 3 3 4 4 5 5 5 3 7 4 5 5 11 15 5 4 2 7
19 20 19 17 16 15 14 12 11 11 9 5 1 4 4 4 1 2 2 4 2 2 4 3 3 4 3 4 2 2 2 3 2 3 5 6 4 5 4 4 4 15 3 3 5 7 7
20 19 17 16 15 14 14 13 12 11 11 6 4 3 2 5 4 1 3 2 4 6 5 1 5 2 4 3 2 2 3 3 2 2 6 5 4 2 6 4 4 6 9 9 6 8 6
Wind_Direction
221 221 221 219 218 214 208 212 213 214 214 225 230 235 256 268 283 295 305 312 321 319 319 322 330 334 360 336 254 275 145 151 147 144 144 167 177 188 223 265 316 236 261 263 263 263 262
222 220 219 220 216 213 206 207 210 211 207 212 226 245 257 270 284 296 301 305 309 309 310 316 324 333 62 266 265 287 150 201 223 183 164 169 228 214 271 296 269 297 298 290 273 278 279
222 221 219 218 215 209 206 205 202 208 208 208 223 240 258 279 290 300 302 301 303 304 298 299 304 252 248 242 335 316 284 234 210 170 200 202 182 155 329 322 234 274 314 314 294 209 234
223 224 220 219 214 206 201 199 203 204 202 207 221 233 239 269 296 303 305 303 300 297 288 283 271 194 251 242 220 272 183 272 238 206 205 256 156 162 185 271 343 337 297 293 330 343 314
225 223 221 220 214 202 196 196 194 201 199 209 220 226 247 281 298 305 310 310 302 298 264 202 144 183 265 293 248 238 177 217 189 148 210 242 136 185 217 82 6 340 278 285 313 216 337
234 231 228 221 207 201 197 192 193 193 197 202 215 218 235 267 299 311 319 307 295 301 113 159 239 336 258 296 2 35 191 312 238 97 20 67 58 158 59 106 229 239 281 286 278 293 323
239 233 230 214 203 200 199 194 185 186 192 200 209 206 239 268 291 319 345 4 6 336 237 194 192 246 295 329 288 90 39 343 46 64 186 310 97 216 220 210 205 239 256 269 279 293 294
239 233 220 215 208 202 195 193 179 181 186 186 207 198 229 267 296 312 96 222 165 192 306 244 254 265 275 353 321 304 150 162 162 202 146 32 228 230 242 228 232 249 264 272 281 273 277
237 236 233 223 207 199 193 188 179 176 176 193 199 189 205 277 307 357 187 93 359 108 330 290 207 218 245 150 205 273 158 177 181 209 225 187 224 187 205 239 245 247 251 289 281 314 296
232 229 228 215 211 195 191 181 174 172 180 184 182 184 193 258 353 213 188 5 22 77 11 248 211 237 151 137 349 242 303 154 77 196 224 223 174 72 303 280 267 282 247 272 289 299 293
225 230 230 215 203 189 179 166 170 170 173 168 175 191 169 196 154 151 139 352 45 61 310 138 80 37 31 96 289 44 348 37 176 240 155 251 313 284 275 255 241 274 271 255 269 281 287
222 214 215 209 184 175 160 159 161 161 162 164 180 179 146 125 93 246 68 66 69 61 242 65 29 10 38 26 39 345 16 32 256 330 221 223 271 246 226 256 238 262 277 267 262 261 264
215 208 194 178 164 157 158 159 154 153 158 163 165 180 168 138 192 181 87 76 83 182 337 75 46 15 84 349 66 34 13 12 10 349 351 318 229 265 327 328 324 85 21 299 306 243 262
205 196 176 162 158 158 157 150 145 148 163 162 155 146 242 204 218 129 95 75 194 129 59 51 345 6 96 21 28 9 22 356 28 89 310 308 313 61 6 143 259 279 186 210 265 243 290
194 179 169 162 158 155 146 145 145 145 148 148 137 92 144 248 190 113 100 106 225 101 95 135 172 99 115 70 0 40 339 263 226 88 256 305 248 326 299 280 182 251 187 219 250 268 280
175 168 162 157 149 144 143 144 145 144 146 152 130 143 192 167 160 89 83 213 148 82 124 186 136 138 160 238 73 54 222 242 298 298 162 272 295 233 272 308 248 223 238 281 219 235 242
165 159 154 145 140 138 139 142 142 141 152 161 123 115 231 151 136 61 150 209 115 145 157 100 163 173 207 56 9 187 238 281 248 277 243 269 228 282 319 215 232 179 230 210 193 235 241
138 134 132 131 131 132 136 134 139 150 156 153 127 104 201 132 103 175 155 175 126 134 61 82 109 92 120 162 230 226 222 205 238 168 271 209 221 283 268 272 253 263 281 286 220 202 216
120 123 122 124 123 123 130 142 153 161 165 137 108 108 345 123 134 205 226 113 68 76 54 62 104 92 52 208 253 224 231 267 268 224 212 188 274 322 313 238 65 40 351 307 267 248 222
112 118 118 120 127 135 146 151 158 168 182 112 111 111 16 66 260 131 112 87 116 59 83 105 248 92 227 220 213 272 248 283 264 227 274 239 217 209 245 270 319 293 302 285 239 217 118
113 121 126 130 136 140 143 148 155 158 165 133 56 178 175 183 205 120 96 107 131 141 95 96 172 158 155 266 273 245 256 293 300 268 236 164 249 228 246 263 278 290 310 20 71 89 90
124 121 124 129 131 135 139 147 151 154 155 109 128 131 50 87 102 104 102 183 144 144 156 206 195 242 223 224 212 265 251 201 248 307 162 202 262 270 265 236 149 64 38 33 27 71 100
127 129 127 128 132 136 140 144 149 157 175 111 97 44 103 150 128 105 198 167 194 134 251 198 203 245 270 252 242 242 242 243 252 250 186 238 252 266 46 132 160 47 21 49 53 31 22
128 125 126 132 133 135 136 132 122 131 150 122 121 108 93 146 126 162 141 142 175 195 172 250 183 187 243 326 282 256 244 250 250 251 222 251 221 246 131 160 57 120 84 86 75 37 34
127 129 130 129 129 129 128 119 99 84 91 90 111 110 104 95 107 106 125 131 92 84 19 201 231 222 324 319 313 320 346 208 222 228 311 221 201 256 122 59 111 164 23 337 3 38 26
123 128 126 126 126 126 120 107 91 79 98 88 60 73 95 118 283 25 104 119 130 103 353 258 301 298 355 39 329 331 8 333 6 34 76 350 2 261 72 82 93 46 328 313 259 19 23
129 128 124 129 122 118 117 107 90 78 78 94 58 35 86 103 249 106 131 150 122 109 155 317 329 350 23 27 46 1 343 326 14 14 345 342 12 31 30 101 98 350 322 298 74 262 46
126 123 123 123 121 117 113 105 96 75 78 78 96 17 112 105 349 42 81 125 92 100 130 270 41 349 14 57 5 356 336 350 59 54 350 28 349 17 341 80 97 3 359 62 106 85 98
120 123 126 126 118 115 110 100 93 83 68 79 64 351 20 84 154 331 279 219 171 179 136 38 155 215 215 61 5 348 2 357 8 8 4 45 18 66 19 90 67 29 56 53 71 110 107